Station MIXA2 - Midway Island, AK Image indicating link to RSS feed of recent meteorological observations for station MIXA2


Conditions at MIXA2 as of
(4:33 am AKDT)
1233 GMT on 05/21/2024:
     

Click on the graph icon in the table below to see a time series plot of the last five days of that observation.

5-day plot - Wind Direction Wind Direction (WDIR):WNW ( 300 deg true )
5-day plot - Wind Speed Wind Speed (WSPD): 6.0 kts
5-day plot - Wind Gust Wind Gust (GST): 8.0 kts
5-day plot - Atmospheric Pressure Atmospheric Pressure (PRES):30.03 in
5-day plot - Air Temperature Air Temperature (ATMP): 42.1 °F
5-day plot - Dew Point Dew Point (DEWP): 41.4 °F
5-day plot - Wind Chill Wind Chill (CHILL): 37.8 °F
5-day plot - Wind Speed at 10 Meters Wind Speed at 10 meters (WSPD10M): 7.8 kts
5-day plot - Wind Speed at 20 Meters Wind Speed at 20 meters (WSPD20M): 7.8 kts
5-day plot -  Wind Speed, Wind Gust and Atmospheric Pressure Combined plot of Wind Speed, Gust, and Air Pressure
Previous observations
TIME
(AKDT)
5-day plot - Wind Direction
WDIR
 
5-day plot - Wind Speed
WSPD
kts
5-day plot - Wind Gust
GST
kts
5-day plot - Wave Height
WVHT
ft
5-day plot - Dominant Wave Period
DPD
sec
5-day plot - Average Wave Period
APD
sec
5-day plot - Mean Wave Direction
MWD
 
5-day plot - Atmospheric Pressure
PRES
in
5-day plot - Pressure Tendency
PTDY
in
5-day plot - Air Temperature
ATMP
°F
5-day plot - Water Temperature
WTMP
°F
5-day plot - Dew Point
DEWP
°F
5-day plot - Salinity
SAL
psu
5-day plot - Visibility
VIS
nmi
5-day plot - Tide (above MLLW)
TIDE
ft
2024-05-21 04:23 amWNW 6.0 7.0----30.03- 42.1- 41.4---
2024-05-21 04:13 amWNW 6.0 8.0----30.03- 42.1- 41.4---
2024-05-21 04:03 amWNW 7.0 8.9----30.03- 41.7- 41.0---
2024-05-21 03:53 am NW 2.9 5.1----30.02- 42.1- 41.4---
2024-05-21 03:43 am NW 4.1 5.1----30.02- 41.9- 41.2---
2024-05-21 03:33 amWNW 6.0 8.0----30.02- 41.7- 41.0---
2024-05-21 03:23 amWNW 7.0 8.9----30.02- 41.5- 40.8---
2024-05-21 03:13 amWNW 7.0 8.9----30.01- 41.5- 40.8---
2024-05-21 03:03 amWNW 4.1 6.0----30.01- 42.1- 40.8---
2024-05-21 02:53 amWNW 2.9 4.1----30.01- 42.3- 41.0---
2024-05-21 02:43 am NW 2.9 4.1----30.01- 42.1- 40.8---
2024-05-21 02:33 am NW 4.1 5.1----30.01- 42.1- 40.8---
2024-05-21 02:23 am NW 4.1 6.0----30.01- 42.1- 41.0---
2024-05-21 02:13 am NW 1.9 5.1----30.01- 42.3- 41.0---
2024-05-21 02:03 am NW 1.0 1.9----30.01- 42.3- 41.0---
2024-05-21 01:53 amWSW 1.9 2.9----30.00- 42.3- 41.0---
2024-05-21 01:43 amSSW 1.0 2.9----30.00- 42.3- 41.0---
2024-05-21 01:23 amSSW 1.0 1.9----30.00- 42.3- 41.0---
2024-05-21 01:13 am S 1.0 1.9----29.99- 42.3- 41.0---
2024-05-21 01:03 am- 0.0 1.9----29.99- 42.3- 40.6---
2024-05-21 12:53 am E 1.0 1.9----29.99- 42.3- 40.6---
2024-05-21 12:43 amESE 1.9 2.9----29.99- 42.3- 41.0---
2024-05-21 12:23 am E 2.9 4.1----30.00- 42.1- 40.8---
2024-05-21 12:14 amENE 4.1 5.1----29.99- 42.3- 41.0---
2024-05-21 12:03 am E 4.1 5.1----29.99- 42.3- 41.0---
2024-05-20 11:53 pm E 2.9 4.1----29.99- 42.4- 41.2---
2024-05-20 11:43 pm NE 1.9 2.9----29.99- 42.4- 41.2---
2024-05-20 11:33 pmNNE 1.9 2.9----29.99- 42.4- 41.2---
2024-05-20 11:23 pm N 1.9 2.9----29.99- 42.4- 41.2---
2024-05-20 11:13 pm NE 4.1 6.0----29.99- 42.8- 41.2---
2024-05-20 11:03 pm N 1.9 2.9----29.99- 42.8- 41.0---
2024-05-20 10:53 pmNNW 1.9 4.1----29.99- 42.6- 41.0---
2024-05-20 10:43 pmNNW 1.9 4.1----29.99- 42.8- 41.2---
2024-05-20 10:33 pm N 1.9 2.9----29.98- 43.2- 41.5---
2024-05-20 10:23 pmESE 1.9 4.1----29.98- 43.2- 41.0---
2024-05-20 10:13 pm SE 2.9 6.0----29.98- 43.2- 41.0---
2024-05-20 10:03 pm SE 1.9 4.1----29.98- 43.2- 41.0---
2024-05-20 09:53 pmSSE 4.1 6.0----29.98- 43.2- 41.0---
2024-05-20 09:43 pm SE 6.0 8.0----29.98- 43.2- 41.0---
2024-05-20 09:33 pm SE 6.0 8.9----29.98- 43.0- 41.2---
2024-05-20 09:23 pm SE 7.0 8.9----29.98- 42.8- 41.0---
2024-05-20 09:13 pm SE 8.0 9.9----29.98- 43.0- 40.8---
2024-05-20 09:03 pm SE 7.0 8.9----29.98- 43.2- 40.5---
2024-05-20 08:53 pm SE 6.0 8.0----29.98- 43.2- 40.5---
2024-05-20 08:43 pm SE 7.0 9.9----29.98- 43.3- 40.3---
2024-05-20 08:33 pm SE 8.9 11.1----29.98- 43.2- 41.0---
2024-05-20 08:23 pm SE 8.9 9.9----29.98- 43.0- 40.8---
2024-05-20 08:13 pm SE 8.9 9.9----29.98- 43.0- 40.8---
2024-05-20 08:03 pm SE 9.9 11.1----29.98- 43.0- 40.3---
2024-05-20 07:53 pm SE 8.9 12.0----29.98- 43.3- 40.3---
2024-05-20 07:43 pm SE 8.9 11.1----29.98- 43.2- 40.5---
2024-05-20 07:33 pmESE 9.9 12.0----29.98- 43.0- 39.7---
2024-05-20 07:23 pm SE 8.9 11.1----29.98- 43.0- 40.3---
2024-05-20 07:13 pm SE 8.9 11.1----29.98- 42.6- 39.6---
2024-05-20 07:03 pm SE 7.0 9.9----29.97- 42.8- 39.7---
2024-05-20 06:53 pmESE 7.0 8.0----29.97- 42.8- 39.2---
2024-05-20 06:43 pm SE 7.0 11.1----29.98- 42.8- 40.1---
2024-05-20 06:33 pm SE 9.9 14.0----29.97- 42.4- 39.9---
2024-05-20 06:23 pm SE 9.9 13.0----29.97- 42.6- 38.7---
2024-05-20 06:13 pm SE 8.0 9.9----29.97- 42.8- 39.6---
2024-05-20 06:03 pmESE 8.0 9.9----29.97- 43.0- 39.9---
2024-05-20 05:53 pmESE 8.0 9.9----29.97- 43.3- 40.3---
2024-05-20 05:43 pm SE 8.9 11.1----29.97- 43.2- 40.5---
2024-05-20 05:33 pm SE 9.9 12.0----29.97- 42.8- 40.3---
2024-05-20 05:23 pmESE 9.9 13.0----29.97- 43.0- 39.7---
2024-05-20 05:13 pmESE 9.9 12.0----29.97- 43.2- 39.6---
2024-05-20 05:03 pmESE 9.9 12.0----29.97- 43.2- 39.9---
2024-05-20 04:53 pmESE 9.9 12.0----29.97- 43.2- 39.6---
2024-05-20 04:43 pmESE 11.1 13.0----29.97- 43.2- 39.9---
2024-05-20 04:33 pmESE 11.1 13.0----29.97- 43.0- 39.4---
2024-05-20 04:23 pmESE 12.0 14.0----29.97- 43.0- 39.7---
2024-05-20 04:13 pmESE 12.0 15.0----29.97- 42.8- 39.2---
2024-05-20 03:53 pmESE 12.0 15.0----29.97- 42.8- 38.8---
2024-05-20 03:43 pmESE 13.0 15.0----29.98- 42.8- 39.2---
2024-05-20 03:33 pmESE 13.0 15.9----29.98- 43.0- 39.9---
2024-05-20 03:23 pm SE 12.0 15.0----29.98- 42.8- 39.7---
2024-05-20 03:13 pm SE 11.1 15.0----29.98- 43.0- 40.3---
2024-05-20 03:03 pmESE 9.9 12.0----29.98- 42.8- 39.7---
2024-05-20 02:53 pmESE 9.9 13.0----29.98- 42.8- 39.7---
2024-05-20 02:43 pmESE 9.9 13.0----29.98- 42.6- 39.6---
2024-05-20 02:33 pmESE 11.1 14.0----29.98- 42.8- 39.7---
2024-05-20 02:23 pm SE 12.0 14.0----29.98- 42.8- 39.6---
2024-05-20 02:13 pm SE 13.0 15.9----29.98- 43.2- 39.2---
2024-05-20 02:03 pm SE 12.0 15.0----29.98- 43.2- 38.3---
2024-05-20 01:53 pmSSE 12.0 15.9----29.98- 43.3- 38.5---
2024-05-20 01:43 pmSSE 12.0 14.0----29.98- 43.0- 38.5---
2024-05-20 01:33 pmSSE 12.0 15.0----29.98- 43.2- 38.1---
2024-05-20 01:23 pmSSE 13.0 18.1----29.98- 43.2- 38.1---
2024-05-20 01:13 pmSSE 15.0 18.1----29.98- 43.2- 38.3---
2024-05-20 01:03 pmSSE 14.0 17.1----29.98- 43.2- 38.3---
2024-05-20 12:53 pmSSE 14.0 17.1----29.98- 43.2- 38.7---
2024-05-20 12:43 pm S 15.9 22.0----29.98- 43.0- 37.9---
2024-05-20 12:33 pmSSE 15.9 20.0----29.97- 44.1- 39.2---
2024-05-20 12:23 pmSSE 15.9 20.0----29.97- 43.7- 37.9---
2024-05-20 12:13 pmSSE 17.1 21.0----29.97- 43.5- 37.8---
2024-05-20 12:03 pmSSE 17.1 21.0------------
2024-05-20 11:53 amSSE 17.1 22.0----29.98- 43.3- 39.2---
2024-05-20 11:43 amSSE 19.0 22.0----29.98- 43.7- 39.7---
2024-05-20 11:33 amSSE 20.0 22.9----29.97- 44.1- 39.9---
2024-05-20 11:23 amSSE 17.1 20.0------------
2024-05-20 11:13 amSSE 17.1 21.0----29.97- 43.7- 39.6---
2024-05-20 11:03 amSSE 18.1 21.0----29.98- 43.7- 39.7---
2024-05-20 10:53 amSSE 17.1 20.0----29.98- 43.7- 40.1---
2024-05-20 10:43 amSSE 17.1 21.0----29.98- 43.9- 40.3---
2024-05-20 10:33 amSSE 19.0 22.9----29.97- 43.7- 39.7---
2024-05-20 10:23 amSSE 21.0 24.1----29.96- 43.7- 39.2---
2024-05-20 10:13 amSSE 21.0 26.0----29.96- 44.1- 39.6---
2024-05-20 10:03 amSSE 22.0 26.0----29.96- 43.9- 39.4---
2024-05-20 09:53 amSSE 21.0 25.1----29.96- 43.7- 38.8---
2024-05-20 09:43 amSSE 21.0 24.1----29.96- 43.9- 38.7---
2024-05-20 09:33 amSSE 22.0 26.0----29.97- 43.9- 39.0---
2024-05-20 09:23 amSSE 22.0 26.0----29.97- 43.7- 38.8---
2024-05-20 09:13 amSSE 21.0 25.1----29.97- 43.7- 39.2---
2024-05-20 09:03 amSSE 22.9 27.0----29.97- 43.7- 39.2---
2024-05-20 08:53 amSSE 20.0 26.0----29.97- 43.9- 39.7---
2024-05-20 08:43 amSSE 21.0 25.1----29.97- 43.9- 39.7---
2024-05-20 08:33 amSSE 20.0 24.1----29.97- 43.9- 39.9---
2024-05-20 08:23 amSSE 20.0 24.1----29.97- 43.7- 39.6---
2024-05-20 08:13 amSSE 20.0 24.1----29.97- 43.7- 40.5---
2024-05-20 08:03 amSSE 20.0 24.1----29.97- 43.9- 40.3---
2024-05-20 07:53 amSSE 18.1 22.9----29.98- 43.9- 40.8---
2024-05-20 07:43 amSSE 8.0 11.1----29.98- 43.2- 39.0---
2024-05-20 07:33 am S 5.1 8.0----29.98- 43.0- 38.1---
2024-05-20 07:23 am S 6.0 8.9----29.98- 42.8- 37.9---
2024-05-20 07:13 am S 7.0 11.1----29.98- 42.6- 38.1---
2024-05-20 07:03 amSSW 8.0 12.0----29.98- 42.4- 37.9---
2024-05-20 06:53 amSSW 8.9 14.0----29.98- 43.2- 38.7---
2024-05-20 06:43 amSSW 9.9 15.0----29.98- 42.8- 38.8---
2024-05-20 06:33 amSSW 9.9 15.9----29.98- 42.8- 38.8---
2024-05-20 06:23 amSSW 12.0 18.1----29.98- 43.2- 39.2---
2024-05-20 06:13 amSSW 9.9 18.1----29.97- 43.3- 40.3---
2024-05-20 06:03 am S 17.1 22.9----29.97- 44.4- 41.7---
2024-05-20 05:53 amSSE 18.1 22.0----29.97- 44.8- 43.2---
2024-05-20 05:43 amSSE 19.0 25.1----29.97- 44.6- 43.0---
2024-05-20 05:33 amSSE 19.0 22.9----29.97- 44.6- 43.3---
2024-05-20 05:23 am SE 15.0 20.0----29.97- 44.8- 43.5---
2024-05-20 05:13 am SE 18.1 22.0----29.97- 44.8- 42.8---
2024-05-20 05:03 am SE 18.1 22.9----29.98- 44.6- 43.3---
2024-05-20 04:53 am SE 17.1 22.9----29.98- 44.4- 43.2---
2024-05-20 04:43 am SE 18.1 22.0----29.98- 44.4- 43.3---
2024-05-20 04:33 amSSE 21.0 27.0----29.97- 44.4- 43.2---
2024-05-20 04:23 amSSE 18.1 22.9----29.98- 45.0- 43.0---
2024-05-20 04:15 amSSE 17.1 20.0----29.98- 44.6- 43.0---
2024-05-20 04:03 amSSE 19.0 22.9----29.98- 44.6- 43.3---
2024-05-20 03:53 amSSE 19.0 24.1----29.98- 44.8- 43.2---